User: anonymous   Login
Location: Unspecified
(0.0000°N, 0.0000°E)
Time: 09:19:06
(UTC+00:00)
Language:

COSMOS 2481 - Orbit

View from above orbital plane
View from above orbital plane
View from above satellite
View from above satellite

Ground track
Ground track

The orbit data is extracted from the following two-line orbital elements,

1 38733U 12041A   17268.92854344 +.00000034 +00000-0 +17563-3 0  9997
2 38733 082.4711 261.5721 0018307 170.3991 189.7444 12.42372256234170
Epoch (UTC): 25 September 2017 22:17:06
Eccentricity: 0.0018307
inclination: 82.4711°
perigee height: 1482 km
apogee height: 1511 km
right ascension of ascending node: 261.5721°
argument of perigee: 170.3991°
revolutions per day: 12.42372256
mean anomaly at epoch: 189.7444°
orbit number at epoch: 23417

The dashed part of the orbit path shows where the satellite is in the earth's shadow,  

DLR